Temperature
31 32 33 33 33 33 33 33 33 32 32 32 32 32 32 30 29 29 28 27 25 25 24 22 21 21 21 21 20 20 20 19 19 19 18 18 18 18 18 18 17 17 17 17
31 32 32 32 32 32 32 32 32 32 32 32 32 32 32 31 30 29 28 27 26 25 24 22 21 21 21 21 21 20 20 19 19 19 18 18 18 18 18 18 18 17 17 17
32 32 31 31 31 32 32 32 32 32 32 32 32 32 32 31 30 29 28 27 27 26 25 23 22 21 21 21 21 20 20 20 19 19 18 18 18 18 18 18 18 18 18 17
31 31 31 31 32 32 32 32 32 32 32 32 32 32 32 32 31 30 29 28 27 26 25 23 22 22 21 21 21 20 20 20 19 19 18 18 18 18 18 18 18 18 18 18
31 31 31 31 32 32 32 32 32 32 32 32 32 32 33 32 32 31 30 29 28 26 25 24 23 22 22 21 21 20 20 20 20 19 19 19 18 18 18 18 18 18 18 17
31 31 31 32 32 32 31 31 31 32 32 31 31 31 32 33 32 32 31 29 28 26 25 24 23 22 21 21 21 21 21 20 20 20 19 19 19 18 18 18 18 17 17 17
30 30 31 31 31 31 31 31 31 30 31 31 31 31 32 32 32 31 31 29 28 26 25 24 23 22 21 21 21 21 21 21 20 20 20 19 19 19 18 18 18 18 18 17
29 30 31 31 31 31 31 32 30 30 30 31 30 31 32 32 31 30 30 29 27 26 26 24 23 22 22 21 21 21 21 21 20 20 20 19 19 18 18 18 18 17 17 17
30 30 31 31 31 32 31 31 33 31 31 30 31 31 32 32 31 31 30 29 28 27 26 25 24 23 22 22 21 21 21 21 20 20 20 19 19 19 18 18 18 17 18 17
30 29 30 30 30 30 31 32 31 31 29 29 30 31 32 32 31 31 30 29 28 27 26 25 24 23 22 22 21 21 21 20 20 20 20 19 19 19 19 18 18 18 18 18
30 29 30 30 30 31 30 30 31 31 31 30 30 31 32 31 31 31 30 29 28 27 26 25 24 23 22 22 21 21 21 20 20 20 20 19 19 19 19 18 18 18 18 18
29 29 29 30 31 30 31 31 31 30 29 30 30 31 32 31 31 30 30 29 28 27 26 25 24 23 23 22 21 21 21 20 20 20 20 20 19 19 18 18 18 18 18 17
28 28 27 28 29 29 30 30 31 31 30 30 30 31 32 31 31 30 29 28 27 26 26 25 24 23 23 22 22 21 21 20 20 20 20 20 19 19 19 18 18 18 18 17
26 28 28 29 30 30 29 30 30 30 30 30 30 31 31 31 30 30 28 27 26 26 25 25 24 23 23 22 22 21 21 20 20 20 20 20 19 19 19 18 18 18 18 17
26 27 28 29 30 30 30 30 30 30 30 30 31 31 31 30 30 28 27 26 26 25 24 24 24 23 23 22 22 22 21 21 20 20 19 19 19 19 19 18 18 18 18 17
25 26 27 28 29 29 29 30 30 30 30 30 31 30 31 29 28 27 27 26 25 25 24 24 23 23 23 22 22 22 21 21 21 20 20 19 19 19 19 18 18 18 17 17
25 25 26 27 28 28 28 29 29 30 30 30 30 30 29 29 27 26 26 25 25 25 24 23 23 23 22 22 22 22 22 21 21 20 20 19 19 19 18 18 18 17 17 17
23 24 26 27 27 26 29 29 30 29 29 29 29 29 28 27 25 24 24 24 24 24 24 23 23 23 22 22 22 22 21 21 20 20 20 20 19 19 18 18 18 17 17 17
24 23 25 26 26 27 27 28 28 28 27 28 28 27 27 26 26 25 23 23 23 23 22 22 22 23 22 22 22 22 21 21 20 20 19 19 19 18 18 18 17 17 17 17
23 23 25 25 26 26 27 27 26 27 26 26 26 26 26 26 28 26 22 22 21 21 21 22 22 22 22 21 21 21 21 20 20 19 19 19 19 18 18 17 17 17 17 16
23 23 24 25 25 26 26 25 25 26 26 24 24 24 24 24 24 22 21 21 21 20 20 21 21 21 21 21 21 20 20 20 19 19 19 18 18 18 17 17 17 17 16 16
23 24 24 24 25 25 23 24 25 24 22 22 22 22 22 21 21 20 20 20 20 20 20 20 20 20 20 20 20 19 19 19 19 19 18 18 18 17 17 17 16 16 16 15
22 22 24 23 23 21 20 21 20 20 20 20 21 21 20 20 20 20 19 19 19 19 19 19 19 19 19 19 19 18 18 18 18 18 18 18 17 17 17 16 16 16 15 15
20 20 21 21 21 20 19 19 19 19 19 19 19 19 20 20 19 19 19 18 18 18 18 18 18 18 18 18 18 18 18 18 18 17 17 17 17 16 16 16 15 15 15 14
19 20 20 20 20 19 19 18 18 18 18 18 18 19 19 19 18 18 18 18 18 18 18 18 18 18 17 18 18 18 18 18 17 17 17 16 16 16 15 15 15 15 14 14
19 19 20 20 19 19 18 17 17 17 18 18 18 18 18 17 17 17 17 17 17 17 17 17 17 17 17 17 17 17 17 17 16 16 16 16 15 15 15 15 14 14 14 14
Wind_Speed
5 9 10 6 4 3 3 5 3 1 1 4 6 5 4 6 8 9 10 11 11 11 10 10 11 11 11 10 11 11 11 10 8 6 6 5 5 5 4 5 5 6 6 6
8 10 5 3 3 5 6 6 5 2 1 4 5 6 4 6 8 8 10 11 11 10 10 10 11 11 12 12 12 12 12 11 10 7 5 4 3 4 4 4 4 6 6 6
12 5 4 6 8 8 7 6 4 2 3 5 6 6 5 5 7 8 9 10 10 11 11 12 12 12 12 12 12 11 12 11 10 9 6 5 4 4 5 5 5 6 6 7
8 6 6 8 9 9 7 3 3 4 6 3 4 4 3 4 6 8 9 10 10 11 11 11 12 12 12 12 11 11 11 11 11 10 8 8 6 6 5 5 4 5 6 6
8 7 8 9 7 7 3 1 3 5 6 6 5 6 1 4 4 6 7 9 9 10 11 11 11 11 11 11 10 10 11 11 11 10 9 9 8 6 5 5 5 5 5 6
6 5 6 6 4 4 5 5 4 7 8 8 4 6 4 1 1 2 5 7 8 9 10 10 10 11 10 10 10 10 11 10 10 11 10 10 9 7 6 5 5 5 4 4
10 10 7 6 8 8 9 8 7 8 8 6 2 6 3 1 0 1 2 6 7 9 10 10 11 12 11 11 11 11 11 11 11 11 10 9 8 8 8 7 6 5 4 4
13 13 11 10 11 9 11 12 9 7 6 4 5 5 2 1 0 2 3 6 8 9 10 10 11 12 12 12 11 11 11 10 10 10 9 8 7 7 6 6 5 5 4 4
10 10 8 7 8 9 10 12 10 9 8 7 4 3 3 3 3 4 5 7 8 9 10 10 11 11 12 11 11 11 10 10 9 9 9 8 7 7 6 5 6 5 4 4
7 8 9 8 7 4 7 9 8 10 8 9 7 6 3 2 2 4 6 7 8 9 10 10 10 11 11 11 10 10 10 9 9 9 8 7 8 7 6 5 5 4 4 4
11 10 9 10 11 13 9 9 9 9 9 9 7 4 2 1 1 2 5 7 8 9 10 10 10 10 11 11 11 10 10 9 8 8 8 7 7 7 6 5 5 5 4 4
11 10 11 11 7 4 11 12 13 11 9 9 9 4 5 1 0 1 2 5 7 8 9 10 11 11 11 11 11 11 10 10 9 8 8 7 7 7 6 6 5 5 5 4
8 9 11 12 11 9 11 12 13 12 9 10 11 6 5 1 1 0 1 4 7 8 9 10 11 11 11 11 11 11 10 10 9 9 8 8 8 7 7 6 5 5 4 4
6 10 13 15 10 11 13 13 13 14 12 12 13 9 3 1 1 1 1 4 6 8 9 10 11 11 11 11 10 10 10 9 9 9 9 8 8 7 6 6 5 5 4 4
6 12 13 13 10 9 13 15 15 16 15 13 11 10 6 3 3 2 1 3 6 8 9 10 11 10 11 11 10 10 10 10 9 9 9 8 7 7 6 6 5 5 4 4
4 8 11 14 13 12 13 14 15 16 14 14 11 9 3 3 2 2 1 3 5 7 8 9 10 10 11 11 11 10 10 10 10 9 9 8 8 7 7 6 6 5 4 4
5 7 10 14 13 13 17 15 15 14 12 12 12 7 2 3 2 2 1 2 4 6 7 8 9 9 9 10 10 11 10 10 10 10 9 9 9 8 8 7 7 6 5 4
7 9 9 12 12 17 11 7 10 11 10 8 6 3 2 2 1 1 2 1 2 3 5 7 7 8 9 9 10 10 11 11 10 10 9 9 9 8 8 7 7 6 5 5
10 9 10 12 16 15 8 5 7 9 8 5 5 3 2 2 3 3 5 3 1 2 3 4 6 7 8 9 9 10 11 11 10 9 9 9 9 8 8 7 7 6 5 5
9 10 11 12 16 17 9 5 4 7 8 4 3 2 2 3 5 1 5 4 2 1 1 2 4 6 7 8 9 10 10 10 10 9 9 8 8 8 8 8 7 6 5 5
11 10 14 15 15 10 1 2 6 10 5 3 1 1 1 1 3 3 3 4 4 3 2 2 3 5 6 7 8 8 8 8 8 8 8 8 8 8 8 7 7 6 6 6
10 11 12 13 15 9 3 2 4 1 3 2 1 2 2 2 2 3 3 4 4 4 4 3 4 4 5 6 6 6 7 7 7 8 9 8 8 7 7 7 6 6 6 6
5 4 4 4 3 4 3 2 3 2 2 2 2 2 2 1 2 3 3 4 4 4 4 3 4 4 4 4 4 5 5 6 7 8 8 9 8 7 7 8 7 6 6 5
3 2 2 2 2 2 2 3 3 3 3 3 3 2 2 2 2 2 3 3 3 3 3 2 3 3 4 4 4 4 4 6 7 7 8 8 8 7 7 6 6 6 6 5
3 3 4 4 3 2 2 3 3 4 4 4 4 3 3 3 2 2 2 2 2 3 3 2 2 2 3 3 3 3 4 5 6 6 6 6 7 7 6 5 3 4 3 3
5 5 6 4 2 2 2 1 2 2 3 4 4 3 3 3 2 2 2 2 2 2 2 2 2 2 2 2 2 2 3 4 5 6 6 5 5 5 6 6 4 5 3 5
Wind_Direction
211 222 217 212 234 273 252 246 234 203 285 254 253 261 224 194 208 204 198 196 197 199 192 190 193 196 194 192 193 193 194 187 189 193 202 203 203 200 207 214 206 211 214 208
207 215 211 199 201 218 230 240 227 184 191 264 273 268 237 206 214 214 208 203 202 196 188 187 193 194 196 193 195 193 192 191 196 194 200 209 210 211 209 220 210 217 214 220
219 183 172 197 200 212 225 246 249 234 215 226 270 242 201 194 207 213 217 212 207 201 194 189 192 194 195 194 195 194 191 191 197 194 196 197 199 216 215 216 212 218 217 222
217 185 195 209 211 225 219 227 244 236 247 243 278 282 169 182 200 206 210 207 205 201 197 192 190 192 194 194 191 189 189 191 192 192 202 207 213 220 219 222 218 217 222 227
194 194 207 214 213 226 214 152 222 241 252 264 245 278 223 176 207 201 200 202 200 196 195 192 189 189 189 188 186 185 186 190 191 196 204 212 222 225 221 217 214 226 223 227
200 193 225 219 196 196 160 178 195 229 244 247 255 274 271 195 205 178 177 185 188 186 186 185 183 182 183 183 183 182 183 189 191 197 206 214 220 219 221 221 221 224 223 224
207 207 203 207 193 186 207 221 224 225 227 239 172 258 276 2 339 248 183 173 173 175 177 176 179 180 181 182 183 183 184 189 192 197 205 210 213 213 217 224 219 229 231 223
207 207 200 205 220 210 216 231 240 251 248 224 183 248 260 92 225 217 185 163 163 167 171 174 177 178 181 183 184 185 187 189 190 196 200 205 208 215 217 217 229 226 237 239
218 211 180 199 217 229 212 228 245 252 264 267 242 247 237 181 184 169 166 163 165 167 168 171 173 177 179 183 185 185 186 188 189 193 194 196 201 213 220 217 223 226 228 233
229 221 188 180 189 212 249 225 223 238 245 252 242 237 235 176 179 177 179 177 170 168 170 171 173 175 175 177 177 180 182 185 187 189 193 192 197 204 213 220 219 224 228 232
230 228 198 192 211 205 195 211 226 234 247 257 255 233 117 169 206 203 193 185 177 176 174 173 172 172 171 171 171 174 178 182 184 187 188 190 191 196 203 206 210 213 218 214
218 230 226 213 202 254 225 221 216 226 229 245 265 250 108 121 292 228 196 177 176 174 172 170 169 169 172 172 172 174 178 181 181 181 181 183 185 191 194 196 200 200 202 204
202 220 221 214 206 207 221 223 226 235 236 238 246 238 119 116 271 221 194 173 172 172 171 169 169 172 175 174 175 175 179 179 178 176 178 179 183 186 190 187 187 189 189 192
221 226 232 233 225 205 210 214 218 226 233 235 241 254 231 276 328 1 168 176 174 172 173 174 173 177 176 173 174 176 178 176 176 176 178 179 181 181 180 178 177 177 179 182
223 229 233 249 252 237 228 222 216 225 240 246 241 243 253 295 316 324 226 177 176 174 177 179 180 177 176 175 175 175 175 174 176 177 177 176 173 171 171 171 171 169 171 174
231 240 233 237 237 235 239 231 223 227 234 242 243 243 260 310 324 321 239 190 189 187 186 184 182 178 179 178 178 175 176 174 175 178 177 171 169 169 168 167 165 164 166 164
226 227 231 234 228 232 235 229 226 225 229 234 235 240 264 292 328 331 303 221 211 203 195 191 188 185 181 181 181 179 175 173 176 176 173 171 173 172 171 169 165 168 169 164
236 236 232 235 222 232 235 226 228 227 228 232 239 246 271 303 349 34 4 300 231 210 202 194 190 184 180 179 179 178 174 174 174 173 171 169 172 171 170 169 167 167 168 164
225 226 233 230 226 229 213 201 209 215 219 217 222 229 249 260 209 107 41 13 314 227 205 193 194 184 176 175 174 174 174 172 172 172 172 172 171 169 170 170 167 167 168 166
204 219 230 229 234 233 214 178 205 219 213 192 214 235 267 251 243 58 23 15 21 31 152 176 180 170 165 168 169 172 175 173 177 176 172 170 171 173 175 172 170 169 170 165
198 208 223 229 233 234 199 165 193 216 200 117 156 300 288 341 353 19 22 31 39 53 77 120 147 156 158 161 167 173 173 176 174 168 165 166 171 176 173 169 170 169 171 167
222 216 218 227 232 224 49 166 208 36 58 78 61 38 37 51 33 44 45 41 44 57 68 92 116 125 136 151 166 171 171 169 168 165 164 164 168 171 167 165 165 169 171 168
237 267 253 245 235 65 50 53 42 45 55 40 33 36 49 43 39 47 50 47 49 55 64 82 105 115 121 137 161 169 163 165 169 167 167 165 165 165 165 168 167 168 174 182
211 265 242 217 167 97 69 74 66 61 48 26 26 25 36 45 42 42 38 41 42 45 50 69 92 109 119 130 143 151 156 167 168 169 168 164 161 161 163 170 174 175 179 185
260 235 231 223 196 166 123 77 58 50 42 38 35 34 31 36 44 40 30 25 29 32 23 42 78 100 109 119 121 131 155 168 167 165 162 161 162 160 161 160 155 176 174 180
250 254 250 246 221 234 162 61 37 34 32 27 22 23 24 26 28 21 12 5 15 23 31 47 62 82 94 109 116 132 156 169 172 169 165 164 163 165 166 158 145 68 77 92
Height
1515 1512 1509 1508 1508 1509 1509 1511 1513 1512 1511 1511 1510 1510 1510 1516 1519 1521 1525 1528 1531 1534 1537 1539 1541 1543 1544 1546 1548 1549 1551 1553 1555 1556 1558 1559 1561 1562 1563 1564 1564 1565 1566 1567
1513 1511 1508 1510 1511 1511 1511 1513 1512 1512 1512 1512 1510 1509 1507 1513 1516 1519 1521 1525 1528 1531 1535 1536 1538 1540 1541 1543 1545 1547 1549 1551 1553 1554 1556 1557 1559 1561 1562 1562 1563 1564 1565 1566
1509 1508 1511 1512 1512 1512 1511 1512 1511 1513 1512 1510 1511 1509 1507 1509 1514 1517 1519 1522 1525 1528 1531 1533 1535 1537 1539 1541 1543 1545 1547 1549 1551 1553 1555 1556 1557 1559 1560 1561 1562 1562 1563 1564
1508 1509 1512 1511 1510 1509 1513 1508 1511 1513 1515 1511 1513 1517 1507 1505 1509 1512 1515 1518 1521 1525 1528 1531 1533 1535 1537 1539 1541 1542 1544 1546 1548 1550 1552 1554 1556 1557 1558 1559 1560 1561 1562 1562
1508 1509 1511 1511 1508 1508 1509 1510 1510 1511 1513 1515 1512 1516 1507 1503 1506 1506 1510 1514 1518 1522 1525 1528 1530 1532 1535 1537 1539 1540 1542 1544 1546 1548 1550 1552 1554 1555 1557 1557 1558 1559 1560 1560
1505 1509 1508 1506 1507 1508 1510 1511 1512 1511 1510 1525 1517 1520 1514 1500 1503 1503 1507 1512 1516 1519 1523 1526 1528 1531 1533 1535 1537 1538 1540 1542 1543 1545 1547 1549 1551 1552 1554 1555 1556 1557 1558 1558
1510 1507 1506 1507 1508 1510 1510 1514 1523 1526 1525 1522 1514 1518 1511 1500 1502 1504 1506 1510 1514 1517 1521 1524 1526 1528 1530 1533 1535 1536 1538 1540 1542 1543 1545 1547 1548 1550 1551 1553 1554 1555 1556 1556
1511 1510 1503 1504 1504 1505 1507 1508 1523 1532 1527 1517 1517 1516 1502 1499 1503 1505 1506 1509 1512 1516 1519 1521 1524 1526 1528 1531 1533 1535 1537 1538 1540 1541 1543 1545 1546 1548 1550 1550 1552 1552 1553 1554
1502 1505 1500 1502 1502 1502 1506 1506 1498 1510 1516 1521 1512 1507 1499 1498 1500 1503 1505 1508 1511 1514 1517 1520 1522 1525 1527 1529 1531 1533 1535 1537 1538 1540 1542 1543 1544 1546 1547 1548 1549 1550 1550 1551
1497 1505 1499 1502 1503 1504 1501 1499 1506 1511 1528 1530 1519 1513 1506 1499 1499 1500 1503 1506 1510 1513 1516 1518 1521 1523 1525 1528 1530 1532 1534 1535 1537 1538 1540 1541 1542 1543 1545 1546 1547 1547 1548 1548
1496 1504 1501 1501 1503 1501 1506 1506 1504 1505 1508 1522 1525 1512 1494 1497 1498 1499 1502 1505 1508 1511 1514 1517 1520 1522 1524 1526 1528 1530 1532 1534 1535 1537 1538 1539 1541 1542 1543 1544 1544 1545 1545 1546
1498 1499 1501 1497 1494 1496 1496 1497 1502 1512 1516 1514 1514 1508 1492 1495 1497 1499 1501 1504 1506 1509 1512 1515 1518 1520 1523 1525 1527 1529 1531 1532 1534 1535 1536 1538 1539 1540 1541 1542 1542 1543 1543 1544
1498 1501 1510 1507 1504 1501 1499 1497 1496 1499 1505 1509 1514 1506 1492 1495 1497 1499 1501 1503 1506 1508 1511 1513 1516 1518 1521 1523 1525 1527 1529 1531 1532 1534 1535 1536 1537 1538 1539 1540 1540 1541 1541 1541
1501 1498 1501 1502 1494 1490 1497 1497 1496 1499 1502 1505 1505 1499 1492 1493 1496 1498 1501 1502 1504 1507 1509 1512 1514 1516 1519 1521 1523 1525 1527 1529 1531 1532 1533 1534 1535 1536 1537 1538 1538 1539 1539 1539
1499 1497 1494 1490 1486 1486 1489 1491 1494 1496 1494 1497 1495 1494 1492 1493 1496 1498 1500 1502 1503 1505 1507 1509 1511 1514 1516 1518 1521 1523 1525 1527 1528 1530 1532 1533 1534 1534 1535 1536 1537 1537 1537 1538
1499 1497 1494 1494 1488 1488 1490 1487 1489 1491 1490 1490 1490 1492 1490 1494 1496 1498 1499 1500 1501 1503 1505 1507 1509 1511 1513 1516 1518 1520 1523 1524 1526 1528 1530 1531 1532 1532 1533 1534 1535 1535 1536 1536
1497 1499 1499 1495 1488 1491 1495 1486 1486 1487 1486 1487 1490 1490 1491 1493 1495 1497 1498 1498 1499 1501 1503 1505 1506 1508 1510 1513 1515 1518 1519 1521 1523 1525 1527 1528 1529 1530 1531 1532 1533 1533 1534 1534
1500 1499 1495 1491 1494 1507 1485 1478 1480 1484 1485 1486 1487 1490 1492 1494 1496 1497 1497 1497 1498 1499 1500 1502 1504 1506 1507 1510 1512 1514 1516 1518 1520 1522 1523 1525 1526 1528 1529 1529 1530 1531 1532 1532
1496 1498 1493 1490 1493 1490 1484 1482 1482 1485 1488 1487 1489 1491 1492 1493 1493 1494 1496 1496 1497 1497 1498 1499 1501 1503 1505 1507 1509 1511 1513 1515 1517 1519 1520 1522 1524 1525 1526 1527 1528 1529 1530 1530
1493 1495 1493 1490 1493 1492 1481 1481 1485 1486 1491 1489 1491 1491 1492 1492 1488 1492 1496 1495 1495 1496 1496 1497 1498 1500 1502 1503 1506 1508 1510 1512 1514 1516 1518 1519 1521 1523 1524 1525 1526 1527 1528 1529
1490 1492 1490 1487 1487 1480 1481 1484 1486 1493 1490 1491 1492 1493 1493 1493 1494 1497 1495 1495 1494 1494 1494 1495 1496 1498 1499 1501 1503 1506 1508 1510 1512 1513 1515 1516 1518 1520 1521 1522 1523 1524 1525 1526
1484 1483 1486 1484 1486 1487 1486 1485 1486 1489 1491 1492 1493 1494 1494 1495 1496 1496 1495 1495 1495 1494 1494 1494 1495 1496 1497 1499 1501 1503 1505 1507 1509 1511 1512 1513 1515 1517 1518 1520 1521 1522 1523 1524
1485 1484 1479 1482 1485 1489 1490 1490 1492 1493 1493 1494 1494 1494 1495 1495 1496 1496 1495 1495 1495 1494 1494 1495 1495 1495 1496 1498 1500 1502 1503 1504 1506 1508 1509 1510 1512 1513 1515 1516 1517 1519 1520 1521
1488 1490 1488 1488 1488 1491 1492 1493 1494 1494 1495 1495 1495 1495 1495 1495 1496 1496 1495 1495 1495 1494 1494 1495 1495 1495 1496 1496 1498 1499 1501 1502 1504 1505 1506 1507 1508 1510 1511 1513 1515 1516 1517 1518
1489 1489 1488 1489 1491 1492 1493 1495 1495 1495 1496 1496 1496 1496 1496 1496 1496 1496 1496 1495 1495 1495 1494 1494 1494 1495 1496 1496 1496 1498 1499 1500 1501 1502 1504 1505 1506 1507 1509 1510 1512 1513 1514 1515
1491 1490 1488 1487 1491 1492 1494 1496 1496 1496 1496 1496 1496 1496 1496 1496 1496 1495 1495 1495 1494 1494 1494 1493 1494 1494 1494 1495 1495 1496 1497 1498 1499 1500 1501 1502 1503 1505 1506 1507 1508 1509 1511 1511